Weather reports worldwide

Advertisment
Nottingham/Watnall, United Kingdom (3354): temperature & dewpoint: 12.06.2019 23:00:00 - 18.06.2019 23:00:00 (BST)Nottingham/Watnall, United Kingdom (3354): temperature -20cm & temperature -100cm: 12.06.2019 23:00:00 - 18.06.2019 23:00:00 (BST)Nottingham/Watnall, United Kingdom (3354): wind speed & gusts: 12.06.2019 23:00:00 - 18.06.2019 23:00:00 (BST)Nottingham/Watnall, United Kingdom (3354): wind direction: 12.06.2019 23:00:00 - 18.06.2019 23:00:00 (BST)Nottingham/Watnall, United Kingdom (3354): reduced air pressure: 12.06.2019 23:00:00 - 18.06.2019 23:00:00 (BST)Nottingham/Watnall, United Kingdom (3354): visibility: 12.06.2019 23:00:00 - 18.06.2019 23:00:00 (BST)Nottingham/Watnall, United Kingdom (3354): sunshine duration: 12.06.2019 23:00:00 - 18.06.2019 23:00:00 (BST)Nottingham/Watnall, United Kingdom (3354): precipitation: 12.06.2019 23:00:00 - 18.06.2019 23:00:00 (BST)
Date & Time tt [°C] td [°C] tt -20cm [°C] tt -100cm [°C] ff [km/h] ff [kn] fx [km/h] fx [kn] dd ppp [hPa] vv [km] sd [min] rr [mm]
18.06.2019 23:00:00 - - - - - - - - - - - - -
18.06.2019 22:00:00 14,0 13,1 - - 2 1 - - S 1011,8 11 0 0,0
18.06.2019 21:00:00 14,3 13,1 - - 4 2 - - S 1011,9 9 0 0,6
18.06.2019 20:00:00 14,7 13,2 - - 5 3 - - SSE 1012,1 7 0 1,0
18.06.2019 19:00:00 15,0 12,5 - - 9 5 - - SSE 1012,3 13 0 0,6
18.06.2019 18:00:00 17,4 11,1 - - 13 7 - - SSE 1012,3 25 0 0,0
18.06.2019 17:00:00 19,0 10,6 - - 5 3 - - S 1012,4 30 0 0,0
18.06.2019 16:00:00 18,5 10,4 - - 5 3 - - SSW 1012,8 30 0 0,0
18.06.2019 15:00:00 18,8 11,4 - - 9 5 - - SSW 1013,4 30 0 0,0
18.06.2019 14:00:00 17,6 10,8 - - 9 5 - - SSW 1013,7 21 0 0,0
18.06.2019 13:00:00 17,4 10,6 - - 9 5 - - SSW 1013,9 35 0 0,0
18.06.2019 12:00:00 18,1 10,4 - - 11 6 - - SSW 1014,1 50 30 0,0
18.06.2019 11:00:00 16,8 9,5 - - 9 5 - - W 1014,3 35 54 0,0
18.06.2019 10:00:00 16,1 10,1 15,0 13,7 8 4 - - SW 1014,6 45 54 0,0
18.06.2019 09:00:00 15,0 10,0 - - 8 4 - - W 1014,9 28 6 0,0
18.06.2019 08:00:00 14,0 10,5 - - 11 6 - - WSW 1014,8 35 36 0,0
18.06.2019 07:00:00 13,3 10,6 - - 9 5 - - SW 1014,8 30 36 0,0
18.06.2019 06:00:00 11,9 10,1 - - 5 3 - - SW 1014,7 21 0 0,0
18.06.2019 05:00:00 11,9 9,8 - - 5 3 - - WSW 1014,7 35 0 0,0
18.06.2019 04:00:00 12,7 10,2 - - 9 5 - - WSW 1014,9 35 0 0,0
18.06.2019 03:00:00 12,8 10,4 - - 9 5 - - SW 1015,2 25 0 0,0
18.06.2019 02:00:00 13,0 10,7 - - 8 4 - - SW 1015,1 24 0 0,0
18.06.2019 01:00:00 13,8 11,2 - - 8 4 - - SW 1015,5 24 - 0,0
18.06.2019 00:00:00 14,6 10,8 - - 8 4 - - SSW 1015,5 30 0 0,0
17.06.2019 23:00:00 14,9 11,1 - - 8 4 - - SW 1015,5 29 0 0,0
17.06.2019 22:00:00 15,8 10,6 - - 8 4 - - SW 1015,0 35 0 0,0
17.06.2019 21:00:00 16,9 11,9 - - 11 6 - - SSW 1014,5 40 6 0,0
17.06.2019 20:00:00 17,1 11,6 - - 13 7 - - SSW 1014,3 40 6 0,0
17.06.2019 19:00:00 18,0 11,6 - - 16 9 - - SSW 1014,3 35 6 0,0
17.06.2019 18:00:00 18,7 11,5 - - 15 8 - - SSW 1014,2 35 6 0,0
17.06.2019 17:00:00 20,1 11,5 - - 16 9 - - SSW 1014,1 35 36 0,0
17.06.2019 16:00:00 19,5 10,8 - - 22 12 - - SW 1014,5 40 12 0,0
17.06.2019 15:00:00 19,0 10,9 - - 16 9 - - SSW 1014,7 27 6 0,0
17.06.2019 14:00:00 19,0 11,6 - - 16 9 - - SSW 1014,9 30 6 0,0
17.06.2019 13:00:00 17,6 11,5 - - 22 12 - - SSW 1015,2 30 6 0,0
17.06.2019 12:00:00 18,7 12,0 - - 21 11 48 26 SSW 1015,0 35 30 0,0
17.06.2019 11:00:00 18,1 11,7 - - 24 13 46 25 SSW 1015,1 35 18 0,0
17.06.2019 10:00:00 16,7 10,8 14,4 13,7 21 11 - - SSW 1015,1 45 42 0,0
17.06.2019 09:00:00 15,8 10,7 - - 21 11 - - SSW 1015,0 30 42 0,0
17.06.2019 08:00:00 14,3 10,6 - - - - - - - 1014,7 28 0 0,0
17.06.2019 07:00:00 13,6 10,5 - - 16 9 - - SSW 1014,7 30 18 0,0
17.06.2019 06:00:00 12,7 10,6 - - 11 6 - - SSW 1014,6 30 6 0,0
17.06.2019 05:00:00 12,6 10,3 - - 13 7 - - SSW 1014,3 35 0 0,0
17.06.2019 04:00:00 13,0 10,7 - - 13 7 - - SW 1014,5 29 0 0,0
17.06.2019 03:00:00 13,2 10,6 - - 15 8 - - SSW 1014,7 35 0 0,0
17.06.2019 02:00:00 13,4 10,7 - - 16 9 - - SSW 1014,5 30 0 0,0
17.06.2019 01:00:00 13,9 10,8 - - 16 9 - - SSW 1014,7 30 - 0,0
17.06.2019 00:00:00 14,4 10,9 - - 16 9 - - SSW 1014,7 30 0 0,0
16.06.2019 23:00:00 14,8 10,8 - - 16 9 - - SSW 1014,4 30 0 0,0
16.06.2019 22:00:00 15,2 11,2 - - 15 8 - - SSW 1014,5 30 0 0,0
16.06.2019 21:00:00 15,7 11,2 - - 15 8 - - SSW 1014,3 35 0 0,0
16.06.2019 20:00:00 16,5 11,1 - - 18 10 - - SSW 1014,1 35 0 0,0
16.06.2019 19:00:00 18,6 9,4 - - 18 10 - - SSW 1013,7 30 6 0,0
16.06.2019 18:00:00 18,3 8,6 - - 21 11 - - SW 1013,6 50 24 0,0
16.06.2019 17:00:00 18,1 8,4 - - 22 12 52 28 SW 1013,3 30 12 0,0
16.06.2019 16:00:00 18,3 11,6 - - 18 10 - - SW 1013,1 35 12 0,0
16.06.2019 15:00:00 16,5 11,1 - - 22 12 48 26 SSW 1013,3 30 18 0,0
16.06.2019 14:00:00 17,1 10,8 - - 18 10 - - SSW 1013,3 27 30 0,2
16.06.2019 13:00:00 15,9 12,2 - - 13 7 - - S 1013,3 50 18 0,0
16.06.2019 12:00:00 14,7 12,2 - - 8 4 - - SSW 1013,7 30 6 0,8
16.06.2019 11:00:00 12,0 10,3 - - 8 4 - - S 1014,2 7 0 0,4
16.06.2019 10:00:00 12,1 9,9 13,9 13,7 13 7 - - S 1014,2 19 0 0,0
16.06.2019 09:00:00 12,6 9,5 - - 13 7 - - SSW 1014,2 23 42 0,0
16.06.2019 08:00:00 11,3 8,8 - - 13 7 - - SSW 1014,3 21 24 0,0
16.06.2019 07:00:00 10,6 8,8 - - 8 4 - - S 1013,8 25 42 0,0
16.06.2019 06:00:00 9,1 8,1 - - 5 3 - - SSW 1013,6 19 30 0,0
16.06.2019 05:00:00 8,2 6,9 - - 8 4 - - SSW 1013,6 30 0 0,0
16.06.2019 04:00:00 8,3 6,8 - - 8 4 - - SSW 1013,5 26 0 0,0
16.06.2019 03:00:00 8,5 6,9 - - 5 3 - - SW 1013,6 30 0 0,0
16.06.2019 02:00:00 8,2 6,9 - - 8 4 - - SSW 1013,4 23 0 0,0
16.06.2019 01:00:00 8,8 7,6 - - 9 5 - - SW 1013,4 21 - 0,0
16.06.2019 00:00:00 9,8 8,1 - - 11 6 - - SW 1012,8 30 0 0,0
15.06.2019 23:00:00 10,8 9,7 - - 9 5 - - SSW 1012,4 14 0 0,0
15.06.2019 22:00:00 11,2 10,4 - - 0 0 - - N 1011,8 7 0 0,0
15.06.2019 21:00:00 12,0 10,8 - - 4 2 - - WNW 1011,4 40 12 0,6
15.06.2019 20:00:00 12,2 9,3 - - 2 1 - - SSW 1011,2 35 12 1,2
15.06.2019 19:00:00 12,2 8,1 - - 15 8 - - WSW 1011,4 25 0 0,2
15.06.2019 18:00:00 13,8 11,3 - - 11 6 - - S 1010,8 40 12 0,2
15.06.2019 17:00:00 13,2 11,6 - - 13 7 - - S 1011,0 45 0 1,0
15.06.2019 16:00:00 14,1 11,2 - - 16 9 - - S 1010,9 22 0 0,2
15.06.2019 15:00:00 16,1 10,3 - - 16 9 - - S 1010,5 35 0 0,0
15.06.2019 14:00:00 15,6 10,2 - - 13 7 - - SSW 1010,8 45 0 0,0
15.06.2019 13:00:00 15,4 9,6 - - 15 8 - - S 1011,0 29 0 0,0
15.06.2019 12:00:00 15,1 10,0 - - 13 7 - - S 1010,9 35 0 0,0
15.06.2019 11:00:00 14,8 9,6 - - 16 9 - - S 1010,8 19 0 0,0
15.06.2019 10:00:00 14,3 8,9 14,0 13,7 16 9 - - S 1010,9 50 24 0,0
15.06.2019 09:00:00 14,2 9,7 - - 15 8 - - S 1010,8 50 60 0,0
15.06.2019 08:00:00 12,3 9,4 - - 8 4 - - S 1010,9 19 60 0,0
15.06.2019 07:00:00 10,0 8,9 - - 8 4 - - S 1010,8 19 6 0,0
15.06.2019 06:00:00 9,7 8,6 - - 9 5 - - SSE 1010,8 19 0 0,0
15.06.2019 05:00:00 9,5 8,3 - - 9 5 - - S 1010,6 19 0 0,0
15.06.2019 04:00:00 9,6 8,2 - - 8 4 - - S 1010,7 17 0 0,0
15.06.2019 03:00:00 11,0 8,8 - - 8 4 - - SSW 1010,8 24 0 0,2
15.06.2019 02:00:00 10,7 9,3 - - 8 4 - - S 1011,1 30 0 0,0
15.06.2019 01:00:00 10,9 9,4 - - 8 4 - - SSW 1010,8 35 - 0,0
15.06.2019 00:00:00 12,2 10,6 - - 8 4 - - SSE 1010,8 30 0 0,0
14.06.2019 23:00:00 12,1 10,7 - - 9 5 - - S 1010,5 30 0 0,0
14.06.2019 22:00:00 12,4 10,4 - - 9 5 - - S 1010,3 27 0 0,0
14.06.2019 21:00:00 13,2 10,8 - - 11 6 - - SSW 1009,7 35 12 0,4
14.06.2019 20:00:00 14,8 10,1 - - 13 7 - - SSW 1009,3 40 6 0,0
14.06.2019 19:00:00 15,2 10,7 - - 13 7 - - SSW 1009,1 30 0 0,2
14.06.2019 18:00:00 15,5 10,6 - - - - - - - 1008,9 30 0 0,0
14.06.2019 17:00:00 15,2 10,7 - - 15 8 - - SSE 1008,8 50 0 0,0
14.06.2019 16:00:00 15,2 10,6 - - 11 6 - - S 1008,7 45 0 0,0
14.06.2019 15:00:00 15,9 10,1 - - 13 7 - - S 1008,6 25 0 0,0
14.06.2019 14:00:00 15,3 9,5 - - 15 8 - - S 1008,6 30 0 0,0
14.06.2019 13:00:00 15,0 10,7 - - 11 6 - - SSW 1008,3 35 0 0,0
14.06.2019 12:00:00 14,1 10,3 - - 9 5 - - SW 1007,9 40 6 0,0
14.06.2019 11:00:00 12,6 11,1 - - 9 5 - - SW 1007,6 50 6 0,8
14.06.2019 10:00:00 10,6 9,1 13,7 13,7 16 9 - - W 1007,5 3,0 0 0,6
14.06.2019 09:00:00 11,5 11,2 - - 13 7 - - S 1006,9 8 0 1,2
14.06.2019 08:00:00 10,8 10,5 - - 9 5 - - SSE 1006,8 5 0 1,2
14.06.2019 07:00:00 10,2 9,9 - - 8 4 - - S 1006,8 7 0 0,6
14.06.2019 06:00:00 9,9 9,5 - - 5 3 - - SSW 1006,8 4,8 0 0,4
14.06.2019 05:00:00 9,9 9,6 - - 11 6 - - SSW 1006,6 4,2 0 0,4
14.06.2019 04:00:00 9,7 9,3 - - 9 5 - - SSE 1006,5 3,2 0 0,0
14.06.2019 03:00:00 9,5 9,0 - - 4 2 - - S 1006,4 7 0 0,2
14.06.2019 02:00:00 9,4 8,8 - - 5 3 - - S 1006,8 8 0 0,2
14.06.2019 01:00:00 8,8 8,4 - - 5 3 - - SSW 1007,0 11 - 0,0
14.06.2019 00:00:00 8,6 7,5 - - 4 2 - - SW 1006,6 11 0 0,0
13.06.2019 23:00:00 9,7 8,8 - - 9 5 - - WSW 1006,9 16 0 0,0
13.06.2019 22:00:00 10,4 9,5 - - 8 4 - - WSW 1006,1 35 0 0,0
13.06.2019 21:00:00 11,1 9,9 - - 8 4 - - W 1005,3 45 0 0,0
13.06.2019 20:00:00 11,2 9,7 - - 0 0 - - N 1004,5 13 0 0,2
13.06.2019 19:00:00 11,1 9,7 - - 4 2 - - NNW 1004,1 6 0 0,6
13.06.2019 18:00:00 11,3 9,8 - - 4 2 - - NNW 1003,6 9 0 0,8
13.06.2019 17:00:00 11,5 9,9 - - 9 5 - - NNW 1003,2 6 0 0,4
13.06.2019 16:00:00 11,8 10,4 - - 8 4 - - NNW 1002,9 14 0 0,0
13.06.2019 15:00:00 12,8 10,9 - - 9 5 - - WSW 1002,4 29 0 0,0
13.06.2019 14:00:00 13,8 10,8 - - 9 5 - - SW 1002,2 21 6 0,0
13.06.2019 13:00:00 11,8 10,8 - - 9 5 - - SW 1002,3 9 0 0,2
13.06.2019 12:00:00 11,6 9,6 - - 9 5 - - WSW 1002,4 7 0 0,0
13.06.2019 11:00:00 11,5 10,0 - - 5 3 - - W 1002,1 26 0 0,0
13.06.2019 10:00:00 11,3 9,7 13,4 13,7 8 4 - - W 1001,9 15 0 0,0
13.06.2019 09:00:00 11,4 9,3 - - 5 3 - - W 1001,7 30 0 0,0
13.06.2019 08:00:00 10,8 10,0 - - 5 3 - - W 1001,6 14 0 0,0
13.06.2019 07:00:00 10,1 9,7 - - 5 3 - - NNW 1001,9 11 0 0,0
13.06.2019 06:00:00 9,9 9,6 - - 5 3 - - NNE 1002,0 5 0 0,2
13.06.2019 05:00:00 9,7 9,3 - - 8 4 - - NE 1002,3 6 0 0,0
13.06.2019 04:00:00 9,9 9,5 - - 9 5 - - ENE 1002,8 4,5 0 0,0
13.06.2019 03:00:00 10,1 9,7 - - 8 4 - - ESE 1003,6 6 0 0,0
13.06.2019 02:00:00 10,3 9,9 - - 5 3 - - SSE 1004,4 8 0 0,2
13.06.2019 01:00:00 10,7 10,3 - - 8 4 - - S 1005,0 4,1 - 1,0
13.06.2019 00:00:00 11,0 10,6 - - 9 5 - - SSW 1005,8 4,5 0 8,2
12.06.2019 23:00:00 11,4 11,0 - - 5 3 - - ENE 1006,3 0,9 0 7,8

tt = temperature
td = dewpoint
tt -20cm = temperature -20cm
tt -100cm = temperature -100cm
ff = wind speed
fx = gusts
dd = wind direction
ppp = reduced air pressure
vv = visibility
sd = sunshine duration
rr = precipitation

Next stations